Theta_e
346 346 344 344 344 344 343 344 344 343 344 346 346 348 346 347 349 348 350 349 342 341 345 346 345 350 352 351 353 354 352 353 353 353 353 350 345 344 345 345 345 345 345 346 345 346 348 348 348 348 349 350 349 350 349 347 346 344 344 348 351 351 350 349 347 346 344 344 345 344 345 344 345 346 344 342 342 342 343 344 343 343 344 344 343
346 346 345 344 344 345 344 344 344 343 345 346 347 348 346 348 350 349 350 347 339 339 346 347 346 351 352 351 352 353 352 352 353 353 352 349 345 345 345 344 344 345 345 346 346 346 347 347 347 349 349 348 346 345 344 344 346 345 345 349 352 352 351 349 347 348 346 345 345 344 344 344 344 345 344 342 342 341 342 342 343 343 343 341 339
347 346 346 345 345 347 345 344 344 343 345 346 347 349 347 348 350 350 349 345 340 339 344 348 347 351 352 350 352 353 352 353 353 353 352 350 345 345 346 344 344 345 345 346 346 346 346 346 347 348 347 346 345 345 343 343 346 349 349 350 351 351 350 349 349 349 346 344 345 344 344 344 344 345 344 343 342 342 341 341 343 343 342 340 341
348 347 346 346 345 347 346 345 345 344 345 347 347 348 349 349 347 349 350 344 342 342 344 349 349 351 352 350 352 353 353 354 353 353 352 350 346 345 346 345 345 346 346 346 346 346 345 345 347 346 346 345 346 346 345 344 346 350 352 350 349 350 350 349 348 347 344 345 345 344 344 345 345 344 344 343 342 343 341 340 343 341 340 342 345
348 347 346 346 345 346 347 346 345 345 346 347 348 348 350 351 346 346 350 346 344 343 345 349 349 351 352 351 353 352 354 354 352 352 351 349 348 347 345 344 346 347 346 348 348 347 345 346 348 347 345 346 346 348 350 350 350 350 350 350 350 350 351 350 349 348 345 346 347 345 346 346 346 344 342 342 342 343 339 337 342 341 340 343 347
350 348 347 346 346 347 347 348 346 345 346 347 348 347 349 352 346 345 349 348 346 342 344 349 347 351 354 352 353 352 353 353 351 352 350 351 353 349 345 344 346 347 347 349 348 346 346 346 349 348 345 346 346 348 350 352 353 350 349 353 351 349 350 349 350 350 346 346 348 348 348 346 347 346 344 343 343 342 338 338 342 340 337 340 344
351 349 348 347 347 347 348 348 346 346 347 347 348 347 350 351 345 345 346 346 347 342 343 348 344 349 354 352 352 352 352 352 352 353 351 352 354 351 347 345 347 349 348 349 348 346 346 345 347 348 346 346 344 347 350 351 353 352 350 352 349 348 350 348 349 350 346 347 348 348 349 348 348 347 345 345 343 341 340 340 341 339 339 342 342
351 350 349 348 348 348 349 348 346 346 347 347 348 347 350 349 342 344 343 344 348 342 341 346 341 345 351 352 353 352 353 353 353 353 351 352 353 351 350 347 349 352 350 348 347 346 345 345 345 346 347 346 346 349 352 353 353 351 347 347 347 347 348 349 350 350 349 351 350 349 349 348 349 348 345 346 344 343 343 341 341 339 341 344 344
352 350 350 350 350 349 350 349 346 347 347 347 348 346 349 349 342 341 340 342 347 340 336 342 339 342 347 351 353 352 353 354 353 353 352 352 353 352 352 349 349 353 350 346 347 346 345 345 344 345 346 347 349 351 352 352 350 347 345 344 345 346 346 349 350 350 352 351 350 351 349 347 348 346 345 346 346 345 344 341 341 342 342 343 345
354 353 352 350 351 351 351 350 346 347 347 346 348 347 349 351 345 340 339 341 344 338 333 337 338 340 344 350 353 351 352 353 353 353 352 353 354 353 354 350 346 349 348 344 346 346 344 344 343 345 347 347 350 352 350 350 347 343 344 344 343 344 345 348 348 349 352 351 350 350 348 349 348 346 346 346 346 345 345 343 339 341 341 341 346
354 354 354 352 352 352 351 351 347 346 347 346 347 348 350 352 347 340 338 340 341 337 333 334 337 340 341 347 351 350 351 352 352 353 352 353 354 353 352 350 347 348 347 343 345 346 344 345 345 345 347 347 350 352 351 351 348 345 346 344 344 344 344 347 346 347 351 352 353 350 347 349 348 347 349 347 346 346 346 346 342 341 341 341 344
356 355 355 353 352 352 352 352 349 346 346 347 347 348 351 352 350 343 339 341 340 337 335 333 334 337 339 344 347 346 350 352 352 352 352 350 352 352 351 350 349 349 349 345 343 347 345 344 346 345 346 347 348 350 351 352 351 350 348 345 345 344 343 346 345 347 351 352 351 349 348 350 349 348 348 346 346 347 347 347 346 345 343 342 342
356 356 355 354 353 353 353 353 351 349 347 347 347 347 351 353 352 345 339 340 339 337 337 335 332 333 336 341 344 343 345 350 351 351 349 345 348 353 349 349 351 350 353 349 345 351 348 342 345 345 345 346 346 347 349 350 350 349 348 347 346 345 344 345 345 349 353 352 351 351 350 351 349 349 349 347 347 346 345 346 348 347 343 343 343
355 355 355 356 354 354 354 354 353 351 349 349 348 347 351 354 354 348 341 340 340 337 338 338 334 330 331 335 340 340 340 343 346 348 347 342 346 351 348 346 349 351 354 352 350 354 350 341 344 345 344 345 345 346 347 348 349 348 347 349 349 347 347 346 346 351 353 352 352 352 352 351 350 350 349 349 348 346 345 345 348 348 343 344 344
356 355 355 356 356 356 355 355 354 354 352 351 351 349 350 354 355 350 343 340 340 338 339 340 338 332 329 330 335 337 337 337 339 343 345 342 345 351 350 349 349 350 353 353 352 355 352 345 344 345 345 344 343 345 345 343 348 348 345 348 350 347 347 347 348 353 354 353 354 353 352 351 351 351 350 349 349 348 348 348 349 348 346 348 346
360 358 356 356 357 357 356 356 355 355 354 352 352 351 351 353 355 352 344 340 340 340 340 341 340 336 332 330 332 333 335 337 337 339 341 342 344 348 351 353 351 350 352 353 352 354 353 348 343 344 346 344 342 344 345 343 345 346 344 347 350 347 347 348 349 353 354 355 354 352 351 351 351 351 351 351 351 350 350 351 350 349 349 351 349
360 359 358 356 357 356 356 357 356 355 354 353 353 352 352 354 356 354 347 342 340 339 339 341 342 340 335 332 332 332 333 336 337 337 339 343 346 347 351 354 353 352 353 353 352 350 351 348 345 346 346 344 344 344 346 345 344 345 344 345 347 347 347 348 349 353 354 353 354 351 349 351 352 351 350 352 353 351 351 351 351 351 351 352 352
355 355 355 355 356 356 356 356 355 354 354 353 353 353 352 354 356 356 352 345 341 339 338 340 342 343 339 334 334 334 332 336 340 338 338 345 348 347 350 352 352 354 354 353 352 349 347 346 347 350 348 345 345 345 346 345 344 346 345 344 346 346 347 346 346 350 353 352 353 353 352 352 353 352 351 353 354 350 349 351 352 352 350 350 353
353 353 352 354 356 357 356 356 356 355 354 354 354 353 352 353 355 357 356 350 347 345 342 340 341 344 344 337 335 336 333 337 344 344 341 346 348 346 348 351 351 353 353 353 353 351 346 342 344 349 349 346 344 344 345 344 345 346 346 345 346 346 345 345 345 346 349 351 351 352 354 353 354 355 353 353 355 352 351 352 353 353 351 350 352
352 352 353 354 356 356 355 354 355 355 355 353 353 353 352 352 354 357 359 356 355 354 351 346 343 345 349 342 335 337 336 337 345 348 345 346 349 347 347 349 350 352 352 352 354 354 348 341 340 344 347 346 342 343 344 343 344 345 346 348 349 347 345 345 346 346 347 349 350 350 352 351 351 354 354 353 355 355 355 354 353 352 351 349 349
351 352 353 354 356 356 356 356 355 354 354 353 353 353 351 351 353 358 359 358 359 359 356 354 351 350 353 347 337 336 337 339 346 350 348 347 348 348 348 349 349 350 351 350 353 355 351 345 341 341 345 348 344 341 343 342 342 342 346 351 352 350 348 346 345 346 346 349 349 347 349 349 349 350 353 355 356 356 356 355 353 353 351 349 349
351 352 353 354 354 356 358 359 356 353 354 353 353 353 352 352 353 355 357 357 358 358 357 357 356 354 355 353 347 341 337 342 348 350 350 349 348 347 348 349 349 348 349 349 350 353 354 351 349 345 346 349 347 342 341 344 343 340 342 348 349 348 349 347 345 345 345 348 349 346 347 348 347 346 348 353 355 355 354 354 354 353 353 352 351
349 350 351 352 352 354 356 356 355 354 354 354 353 352 351 351 352 352 354 355 356 357 356 355 354 354 355 355 355 351 342 343 349 351 349 349 349 347 347 348 348 347 348 349 349 351 353 353 354 352 348 349 349 345 341 344 346 342 338 343 349 349 347 345 345 344 344 345 346 346 347 348 348 348 348 350 353 353 352 352 353 353 354 355 355
347 348 348 349 350 352 353 353 353 353 353 353 353 352 351 351 352 353 354 355 355 357 356 354 353 354 353 352 355 356 351 349 350 350 349 349 349 348 348 347 347 347 347 347 347 349 351 349 350 354 351 348 350 348 342 341 344 345 341 342 350 353 351 348 345 344 345 346 346 346 347 350 352 352 352 351 352 352 351 351 351 352 352 353 354
344 345 345 347 348 349 350 351 353 353 353 353 352 352 354 355 355 355 355 355 355 355 356 356 356 355 352 349 351 353 354 353 352 350 349 349 349 349 349 348 346 346 346 346 346 347 350 346 344 349 351 347 347 347 344 339 341 344 343 340 345 349 352 353 352 350 350 350 351 350 348 350 351 351 351 351 350 350 351 350 350 350 350 350 350
340 342 343 344 346 346 346 347 349 351 352 352 352 353 355 356 355 355 355 354 353 354 356 356 356 355 352 348 347 349 352 354 353 351 348 348 348 347 349 348 347 346 345 345 345 345 348 347 343 343 345 342 341 342 342 340 341 344 344 341 342 344 345 347 349 350 348 347 348 348 347 349 350 349 349 348 349 350 350 349 350 349 349 349 350
338 339 339 341 342 343 344 344 345 346 347 349 352 352 353 353 353 353 353 352 352 353 354 354 353 353 351 349 347 348 351 351 351 351 349 347 346 345 346 347 347 346 345 344 346 345 345 346 344 343 343 341 337 336 337 336 339 346 350 348 346 346 345 342 341 342 341 342 344 343 342 345 345 344 344 346 348 350 348 348 349 349 348 348 348
336 336 337 339 339 340 341 342 342 343 345 348 351 352 352 352 352 353 353 352 352 352 353 352 352 350 349 350 350 349 351 351 350 350 349 347 347 345 344 345 346 346 345 343 344 345 345 345 345 344 344 343 340 336 335 334 333 338 347 351 350 350 349 346 343 341 341 344 347 347 345 344 342 339 338 339 344 347 349 349 349 349 349 348 348
335 335 335 336 337 338 338 339 340 341 343 347 350 351 352 352 352 353 353 353 352 352 352 352 351 350 349 350 352 352 352 352 351 351 350 348 347 346 344 343 343 345 345 344 342 343 345 346 346 345 345 346 345 341 336 332 331 330 334 342 348 349 350 350 347 346 344 345 348 348 348 348 346 343 339 339 341 343 345 347 349 350 350 350 350
334 334 334 334 335 336 336 337 338 338 340 344 348 351 351 350 351 352 352 353 353 352 352 352 352 352 351 351 352 352 352 353 352 352 352 350 347 345 345 344 343 343 344 344 343 341 343 345 346 346 345 345 346 344 338 331 329 329 327 331 337 342 346 347 347 348 347 346 346 346 345 345 345 344 343 343 343 342 341 340 341 344 345 344 344
334 334 334 333 334 334 334 334 336 336 337 340 344 347 347 347 349 350 351 352 353 353 353 352 352 352 351 352 353 352 353 352 352 351 352 352 351 349 346 344 344 344 344 345 344 342 342 342 345 347 347 347 346 345 342 336 330 329 328 328 329 333 340 343 344 346 347 346 346 346 345 344 342 343 342 342 342 343 341 337 333 332 332 331 331
332 332 333 333 333 333 333 333 332 335 337 337 340 343 345 345 347 348 350 351 352 353 353 352 353 353 352 353 352 352 352 352 353 351 349 351 353 352 349 347 346 345 345 345 345 344 342 341 342 344 347 348 348 346 345 342 337 333 331 330 329 330 336 340 341 343 345 345 343 342 344 344 343 342 342 341 341 341 339 336 332 329 327 326 326
330 330 331 331 331 332 332 332 331 333 334 335 336 340 342 343 344 346 347 349 351 352 352 352 352 353 353 352 352 352 352 352 354 353 350 349 350 349 349 349 349 348 347 346 346 346 345 343 341 342 343 345 347 348 346 344 341 339 336 334 332 331 333 337 339 340 342 343 342 340 339 340 340 341 341 341 341 340 340 338 337 334 331 328 327
329 328 328 329 329 330 331 331 330 331 333 332 332 336 339 340 341 344 346 347 349 350 351 352 352 352 352 352 351 351 352 352 353 353 351 350 348 347 347 348 348 349 349 349 349 348 348 346 343 343 343 343 345 347 347 345 343 341 340 338 336 334 333 335 339 341 342 342 342 341 338 336 334 335 337 340 342 343 343 342 341 338 334 330 328
328 327 326 327 327 327 328 329 328 328 331 331 329 333 337 337 337 340 341 341 344 347 348 349 351 351 351 351 350 351 351 351 352 351 351 351 350 349 350 350 348 348 349 350 351 351 351 351 349 347 345 344 345 346 346 345 344 343 342 340 339 338 336 334 335 339 342 342 343 343 342 338 335 332 330 332 335 339 342 343 342 338 333 328 327
326 325 325 325 326 326 326 327 327 326 328 330 329 329 334 336 337 338 336 332 333 340 344 346 348 350 350 350 351 350 351 351 351 351 351 352 352 351 352 353 352 352 351 351 351 351 353 354 354 353 351 349 348 348 347 346 346 345 344 343 342 341 341 339 337 335 336 338 340 342 342 341 340 336 332 329 329 331 334 337 339 337 334 331 328
324 324 323 323 324 325 325 325 325 324 325 328 328 327 329 334 337 338 335 329 324 328 334 338 342 346 348 349 351 351 352 352 352 352 352 352 353 353 353 354 353 353 353 352 350 350 352 353 353 354 355 355 354 352 351 349 348 347 346 345 345 344 344 344 343 340 337 335 335 336 336 336 337 336 334 333 332 332 333 334 334 335 335 334 333
323 323 322 321 322 324 323 323 324 324 323 325 327 326 325 327 333 336 336 332 325 322 325 326 330 338 342 345 348 349 351 352 352 352 352 353 353 354 354 354 352 352 352 351 350 350 351 352 351 351 353 355 356 356 355 354 352 351 349 348 347 347 347 347 348 347 345 343 340 337 335 332 331 331 330 331 332 334 334 333 332 332 333 333 333
322 321 320 321 322 322 322 322 322 322 323 323 325 326 321 319 324 330 333 333 327 321 322 322 323 328 334 340 345 347 348 351 352 352 353 354 354 354 354 353 352 352 352 352 351 350 350 351 350 349 349 350 353 357 358 356 355 353 352 351 350 349 349 349 349 350 349 350 349 347 344 340 336 332 330 330 331 332 332 332 332 334 335 334 332
320 320 319 320 322 321 320 321 321 320 322 322 323 326 324 318 319 322 326 328 323 317 319 322 322 323 325 330 338 343 345 347 348 350 352 353 354 354 354 354 353 353 354 354 354 352 351 350 350 349 349 349 350 355 357 358 357 356 354 353 352 352 351 351 351 351 350 351 351 351 350 348 345 342 340 338 337 336 335 334 335 338 338 336 336
319 319 319 319 320 320 319 320 320 320 321 321 322 326 323 317 318 322 322 322 318 314 316 319 321 323 323 323 328 334 340 344 344 346 349 350 351 352 352 353 354 354 354 356 355 354 353 352 351 352 352 353 352 354 356 357 358 357 356 355 354 353 352 352 352 351 351 351 352 352 352 351 349 349 348 348 348 347 345 344 342 343 342 341 342
318 319 319 319 319 320 319 319 320 319 320 321 323 324 321 316 318 323 323 320 315 313 314 315 317 321 322 322 323 326 331 337 340 343 346 347 348 349 350 350 351 352 353 355 355 355 354 354 353 353 354 355 355 355 357 357 357 357 357 357 356 355 354 354 353 353 352 352 352 353 353 353 353 353 352 353 353 353 353 352 351 350 350 350 350
318 318 318 318 319 319 318 318 318 319 321 322 321 320 319 319 322 324 322 319 315 314 316 316 316 316 316 318 322 323 324 328 331 336 342 342 341 344 347 349 350 350 352 354 354 355 355 355 354 353 353 354 355 357 358 357 356 357 357 357 357 357 356 356 355 355 354 354 354 355 354 355 355 355 355 355 355 355 356 356 356 356 355 355 355
319 318 319 319 318 318 318 317 318 319 321 320 318 317 318 321 325 324 321 318 316 318 322 323 321 317 314 315 319 323 326 328 329 331 334 335 335 338 341 345 348 350 350 352 354 354 354 355 355 355 354 354 355 357 357 356 355 355 356 357 357 356 356 356 356 355 355 355 355 356 356 357 357 357 357 357 357 357 357 357 357 357 357 357 357
319 320 320 319 318 318 318 318 319 320 320 320 320 319 320 321 320 318 318 319 320 324 327 327 322 316 314 315 315 318 328 335 335 332 331 330 332 336 338 339 343 347 348 349 351 352 353 354 355 355 355 355 356 356 356 355 353 353 354 355 355 355 356 356 356 356 356 356 356 356 356 356 357 358 358 358 359 358 358 357 357 357 357 357 357
319 319 318 317 316 317 318 318 318 319 319 320 320 320 321 320 317 316 319 322 323 323 322 321 317 314 315 316 314 313 322 331 332 328 325 325 328 334 338 337 337 339 341 342 343 345 348 350 352 354 355 355 355 355 354 353 352 352 353 354 354 355 356 355 355 355 355 355 354 355 356 357 357 357 357 357 358 358 357 358 357 357 357 357 357
317 317 317 317 317 317 317 317 317 317 318 319 319 319 321 321 320 319 319 317 315 314 313 314 316 317 315 314 313 313 314 319 325 329 332 332 331 332 333 333 331 333 340 345 346 346 346 347 349 351 352 352 353 354 353 352 352 353 354 355 355 356 357 356 356 355 354 353 353 355 356 358 358 358 358 358 358 357 357 357 357 357 357 357 356
316 316 316 316 317 317 317 317 317 317 319 319 319 318 319 319 318 316 314 312 311 312 312 311 313 316 316 314 316 317 317 321 331 337 337 335 335 334 334 333 331 331 336 340 343 344 345 347 348 349 349 351 351 352 352 352 353 353 353 354 355 357 357 357 356 356 355 354 355 356 356 357 359 360 360 359 359 358 358 358 358 357 357 357 357
315 315 315 315 316 316 317 317 317 318 319 319 319 319 319 320 319 317 314 312 313 314 315 314 314 318 322 323 323 324 326 330 334 334 332 332 335 337 337 335 333 331 331 331 332 331 332 334 337 339 342 345 346 347 349 351 353 354 353 354 356 356 357 357 356 355 355 355 355 355 355 356 357 358 357 358 358 357 357 357 357 357 357 357 357
314 314 314 314 315 315 316 316 317 317 318 318 318 319 320 320 319 319 317 316 315 316 318 321 323 325 327 327 327 327 329 330 330 330 330 329 328 327 326 324 322 324 325 326 327 325 324 323 324 325 329 333 334 336 339 343 349 352 353 354 355 356 356 356 355 355 355 355 356 356 356 356 357 357 356 356 355 354 355 355 355 356 356 356 356
313 313 313 314 314 315 316 316 317 317 317 318 318 318 318 319 319 319 319 318 317 315 316 319 323 326 328 328 328 327 327 326 327 328 328 326 323 321 320 319 320 322 323 324 324 324 324 324 323 323 325 325 326 327 330 332 337 342 345 347 350 352 354 355 356 356 356 356 356 356 356 356 356 356 355 355 355 356 356 357 357 357 357 357 357
Wind_Speed
23 23 23 22 22 22 22 21 19 19 20 21 21 19 19 19 19 20 18 17 18 18 18 17 17 16 14 14 13 13 13 13 13 12 11 10 11 12 11 11 11 10 10 9 10 10 11 11 10 11 10 9 9 9 8 8 8 8 9 9 9 9 8 6 6 7 7 10 9 4 5 5 4 5 6 5 5 4 7 8 7 4 4 4 4
23 24 24 23 22 23 22 22 20 20 21 22 21 20 20 19 19 20 20 18 18 18 18 17 16 16 14 14 12 12 13 13 12 12 10 9 11 11 10 11 11 10 10 9 10 10 10 11 10 10 10 9 9 9 8 8 8 7 8 8 8 8 8 6 7 9 6 7 9 6 5 4 3 4 5 5 5 4 5 7 7 5 6 5 3
24 25 25 24 24 23 23 22 21 21 21 22 22 21 20 20 20 21 19 19 18 18 18 17 16 15 13 13 12 12 12 12 12 12 9 9 10 10 10 10 10 10 10 9 9 9 10 11 9 9 9 9 9 9 8 8 8 8 7 8 8 7 7 6 7 9 6 6 8 7 5 3 2 3 5 6 4 4 4 7 8 7 4 3 1
25 26 26 25 25 24 24 23 22 22 22 22 22 21 21 21 22 22 19 19 19 19 18 17 16 15 13 14 14 13 13 12 13 12 10 9 10 10 9 10 10 10 10 9 8 8 9 10 9 8 9 9 8 8 8 7 8 7 6 8 10 8 7 6 6 8 9 9 7 6 6 3 2 3 5 7 6 5 6 6 7 7 5 2 3
25 26 27 26 26 25 24 24 23 23 23 23 23 22 21 21 22 23 20 19 19 19 19 17 18 18 15 15 14 13 13 12 12 12 10 10 10 10 10 10 10 10 9 8 8 8 7 9 9 8 8 8 9 9 8 7 6 6 7 7 9 11 9 7 6 6 8 9 7 6 5 3 3 3 3 7 6 5 5 5 7 7 4 4 5
24 26 27 26 26 26 25 25 24 24 23 23 23 22 21 21 22 23 22 21 20 20 20 18 20 21 17 16 16 15 14 13 13 11 10 11 11 9 9 10 10 10 10 8 7 7 7 8 8 7 7 7 8 8 8 7 5 6 8 6 6 10 11 9 8 5 6 9 7 7 5 3 4 4 3 5 1 4 7 7 8 5 2 5 7
24 25 26 26 26 26 26 26 25 25 24 23 23 22 22 22 23 22 22 22 20 21 22 19 20 21 17 16 17 17 15 13 13 10 9 11 12 9 9 10 10 9 9 8 7 7 7 8 8 7 7 7 7 8 7 7 6 5 8 7 7 9 10 11 10 6 6 7 5 5 4 3 4 4 3 1 1 5 8 7 8 5 1 5 5
26 26 26 26 26 27 26 26 26 25 24 24 24 23 23 23 23 23 22 22 21 21 23 21 20 21 19 16 15 15 14 13 14 13 11 10 11 10 9 10 11 9 9 9 8 8 7 8 8 7 7 7 7 7 6 5 5 5 5 7 7 7 9 10 10 8 7 6 6 6 3 3 4 2 2 2 1 2 2 4 8 6 4 3 4
25 26 26 26 27 27 26 25 25 25 25 25 24 24 24 24 24 24 23 22 21 22 23 22 20 21 20 18 16 15 14 14 14 14 13 12 10 11 10 10 11 10 9 9 8 8 7 7 7 7 7 8 8 6 4 4 4 4 4 6 6 7 8 9 9 8 7 6 6 7 6 5 3 2 4 4 1 1 3 4 6 6 6 6 5
22 23 23 25 26 26 26 25 25 24 25 25 24 25 25 25 25 25 24 24 23 22 23 22 21 21 21 19 17 16 14 14 14 14 14 14 13 13 11 10 11 11 9 9 9 8 8 7 7 8 7 8 8 7 5 3 3 4 5 6 7 7 8 8 8 8 7 8 5 5 8 7 3 3 3 2 2 3 2 2 4 5 6 6 4
22 22 22 23 24 25 25 25 25 25 25 25 25 25 26 26 26 26 25 25 24 23 23 23 22 22 22 20 18 17 15 14 15 15 16 16 15 14 13 11 11 11 9 9 9 9 8 8 8 8 8 8 8 7 6 5 4 5 5 6 7 7 7 8 8 7 7 8 4 3 7 7 4 3 3 3 4 3 3 2 2 3 6 7 4
20 20 22 23 24 25 26 26 25 25 25 26 25 25 26 26 27 27 26 26 25 24 24 24 24 24 23 22 20 18 17 15 16 16 16 16 16 15 13 12 11 11 10 9 9 10 9 9 8 8 9 9 8 8 9 8 7 6 5 5 6 6 7 8 8 8 6 6 4 4 6 5 3 3 2 4 4 4 4 3 3 1 5 6 4
20 19 21 25 27 27 27 27 26 25 25 26 25 25 26 27 27 28 28 27 26 25 24 24 25 25 25 23 21 20 18 17 16 16 15 15 15 15 14 14 12 12 12 10 9 11 10 9 9 8 9 9 9 9 9 9 8 7 7 6 6 6 7 6 7 7 5 5 6 5 4 4 4 3 2 3 3 3 5 4 3 1 3 4 4
23 21 20 23 25 26 26 26 27 26 25 25 26 26 26 27 28 29 28 28 27 26 24 23 24 25 26 25 23 22 20 18 18 17 16 15 15 15 14 15 14 13 13 10 10 12 11 10 10 9 9 8 8 9 9 9 9 8 7 7 7 6 6 6 7 7 5 6 7 7 7 5 4 4 4 5 3 3 2 4 5 4 4 3 5
22 23 21 21 22 22 24 25 26 27 25 24 25 27 27 28 28 29 29 28 28 27 25 24 24 24 25 25 24 23 21 20 19 17 17 16 16 15 14 13 14 14 14 12 12 13 12 10 10 10 9 8 8 9 8 8 9 9 8 8 8 6 6 5 7 6 4 5 5 7 9 8 6 5 4 5 5 3 3 5 8 8 6 2 3
16 20 19 20 21 21 22 23 24 27 27 23 24 26 27 28 29 29 29 29 29 28 27 26 25 24 25 25 25 24 23 22 20 19 18 17 16 16 15 14 13 13 14 14 14 15 13 11 11 10 10 9 8 9 9 8 9 9 8 9 9 8 6 6 6 7 5 6 6 6 8 9 8 7 7 7 7 6 7 7 7 6 6 3 1
14 18 17 16 19 21 23 22 23 26 27 24 24 26 26 28 30 29 29 29 29 28 28 27 26 25 25 25 25 25 25 24 23 21 20 18 16 16 16 16 16 14 13 14 14 15 14 12 11 11 11 11 10 9 9 9 9 8 8 9 8 7 7 6 7 8 7 5 6 6 7 8 7 7 8 7 6 8 9 9 6 6 7 5 1
13 19 21 19 17 19 23 23 23 25 25 24 24 26 28 29 29 29 29 30 29 28 28 28 28 27 26 25 25 25 25 24 23 22 21 20 18 17 16 16 17 15 14 14 14 15 15 13 13 13 12 12 11 10 9 9 9 8 8 8 7 6 6 6 7 8 7 6 6 7 7 7 7 6 7 6 6 7 8 7 5 5 8 6 4
6 12 20 22 21 23 25 25 23 24 25 25 24 26 29 29 28 29 29 29 29 28 28 28 28 27 26 26 25 25 25 24 23 23 22 21 20 20 19 16 16 16 16 16 16 16 16 15 15 15 14 13 12 12 11 11 10 9 8 8 8 7 6 6 6 7 9 9 8 8 7 7 7 6 7 8 7 5 5 6 6 6 8 8 7
8 3 10 18 23 24 24 24 24 23 25 29 27 26 27 26 26 29 30 29 29 28 28 27 27 27 26 25 25 25 25 25 24 23 23 23 22 21 20 18 17 17 17 18 17 16 16 16 16 16 15 14 13 13 13 12 11 10 9 9 8 8 7 7 7 7 8 9 9 7 7 8 8 7 7 8 6 5 5 6 7 9 9 9 9
8 6 1 9 19 20 18 19 21 22 24 30 30 27 27 27 28 29 27 28 30 29 27 26 26 25 24 24 25 25 25 25 25 25 24 24 24 23 21 20 20 19 18 19 19 17 16 16 17 16 16 15 14 14 14 13 12 12 11 10 10 10 8 8 9 9 8 9 8 7 7 7 7 7 7 7 5 5 6 6 6 7 8 9 10
10 9 9 3 11 21 20 18 23 25 27 30 29 27 28 30 30 29 26 26 29 29 27 26 26 25 23 23 24 24 25 26 26 26 26 25 25 25 23 22 22 21 20 19 20 19 17 17 17 17 17 17 16 15 15 14 14 13 13 13 12 10 10 10 10 10 10 10 9 9 8 8 8 7 7 7 6 5 6 6 7 7 7 7 8
10 10 12 13 4 14 20 19 21 26 27 28 26 25 26 28 29 28 25 25 27 27 28 28 27 26 24 23 24 25 26 26 26 26 27 26 26 26 26 24 23 22 22 21 20 20 20 20 18 18 18 19 18 17 16 16 15 14 14 14 13 11 10 11 11 11 11 11 11 11 9 9 8 7 7 6 7 7 7 8 8 8 8 8 8
12 11 12 15 14 9 10 14 17 19 21 24 25 24 24 24 25 24 24 25 26 25 26 28 27 27 27 24 23 25 27 27 27 27 27 27 26 26 27 27 25 23 23 24 22 20 21 22 21 20 20 20 20 19 18 17 17 16 15 15 15 14 13 12 12 11 11 11 11 12 11 11 10 9 9 9 9 9 9 9 9 9 10 11 10
15 15 16 16 16 16 15 10 11 11 12 16 21 21 18 16 19 22 24 27 27 25 25 26 27 28 29 28 26 26 27 29 29 28 28 28 27 26 26 27 26 25 23 24 24 23 22 23 23 23 23 23 22 22 20 18 18 18 17 16 17 18 17 15 13 13 13 12 12 13 12 12 12 12 13 12 11 10 10 11 10 10 11 11 11
16 17 19 20 16 14 17 18 14 10 6 6 13 19 15 13 18 23 25 26 27 27 26 26 28 29 30 31 31 29 28 30 30 29 28 29 28 27 27 27 26 25 24 24 25 26 25 24 23 23 24 24 23 23 21 19 18 18 18 17 16 18 18 18 17 16 15 15 15 15 14 13 14 14 14 13 11 11 11 11 11 11 11 11 11
18 18 19 21 19 14 12 13 14 15 14 10 6 12 14 13 15 18 22 24 25 25 25 25 27 30 32 33 33 32 30 30 31 30 29 28 29 27 26 27 27 26 25 24 24 26 26 26 25 24 24 24 23 23 22 21 20 18 17 17 17 17 17 18 18 17 17 16 15 16 15 15 15 15 14 13 12 12 12 12 12 12 13 13 13
18 19 19 20 21 19 16 12 10 10 8 10 11 10 9 11 11 10 13 16 19 22 22 22 23 26 29 31 32 33 32 31 30 31 31 28 28 28 28 27 26 26 26 25 24 24 25 26 26 26 25 24 23 24 23 23 22 21 20 19 18 18 18 18 18 17 17 16 16 16 16 16 16 15 13 12 12 13 13 13 13 13 13 13 14
18 19 19 19 19 20 20 18 16 15 7 4 8 11 10 9 10 9 7 7 11 15 18 18 19 21 24 27 30 32 32 32 29 28 31 31 29 27 27 27 27 26 25 25 25 24 24 25 26 26 26 26 25 25 25 25 24 23 23 23 22 21 20 20 19 18 17 17 17 18 17 16 16 16 14 13 13 13 15 15 15 14 14 14 15
18 18 18 18 19 19 20 20 20 20 16 7 7 9 6 4 6 9 8 6 5 7 12 15 17 18 19 23 28 32 32 32 30 25 24 28 30 28 25 26 26 25 24 25 25 24 24 24 25 26 26 26 26 26 27 27 26 25 25 24 25 24 24 23 22 21 20 19 19 19 18 18 18 18 18 17 17 17 17 17 17 16 17 17 18
17 18 17 17 18 18 19 20 19 19 19 14 7 9 8 2 2 6 7 6 6 4 8 12 14 16 17 19 23 28 29 29 29 28 21 17 21 25 24 24 25 24 23 24 25 25 25 24 24 25 26 26 27 27 27 28 27 26 26 25 26 26 25 25 25 24 23 23 22 20 20 20 20 20 21 20 20 21 22 22 20 19 19 19 20
16 17 17 17 18 18 18 19 19 19 18 15 11 3 2 1 3 1 5 5 4 5 7 9 10 12 14 16 19 22 24 22 22 24 21 17 18 19 20 19 21 23 23 23 23 25 26 26 24 24 26 26 26 26 27 28 28 27 26 25 26 26 27 27 27 26 26 26 26 24 23 22 21 21 23 24 24 25 26 25 23 21 21 22 23
15 16 17 16 17 17 17 18 19 18 17 15 14 10 5 4 6 4 2 4 4 4 6 8 9 10 11 14 16 18 21 20 17 18 21 21 20 21 21 19 19 21 23 25 25 24 26 28 27 26 25 26 27 26 26 28 29 29 27 26 26 26 27 28 28 28 28 28 28 27 26 25 23 22 22 23 24 25 24 24 23 23 24 24 24
15 15 16 16 16 16 16 17 17 17 16 15 15 14 10 8 8 9 6 4 4 5 6 7 10 12 13 13 14 16 19 22 20 19 19 19 20 23 26 26 25 26 26 27 28 27 27 29 30 29 27 27 27 27 27 29 30 31 30 29 28 28 28 28 28 28 28 28 28 28 28 28 27 27 25 24 23 23 23 23 24 26 27 27 27
14 14 15 15 15 15 15 15 15 16 15 14 15 14 13 12 12 13 12 9 6 6 6 6 8 11 13 15 16 16 18 20 21 21 20 19 19 21 24 27 29 29 29 30 30 28 27 29 31 32 32 30 28 27 28 29 30 31 32 31 31 30 30 30 30 29 29 29 28 28 29 29 29 29 29 29 27 26 25 25 26 30 32 32 31
12 13 14 14 13 14 14 14 14 14 14 14 15 15 14 14 15 14 14 13 11 8 6 6 7 9 12 15 17 18 16 16 17 18 18 18 18 20 23 24 26 27 27 29 30 29 28 28 29 30 32 34 32 30 29 29 29 30 31 32 33 33 32 32 32 32 32 32 32 31 30 30 30 31 31 31 30 30 30 30 31 32 33 34 35
11 11 12 13 12 12 13 12 13 14 14 13 14 14 14 14 14 14 14 14 15 13 10 7 5 6 9 11 14 16 16 15 15 16 16 16 16 19 21 23 24 25 25 26 28 29 30 29 29 29 29 31 33 33 33 32 31 31 31 32 33 33 34 34 34 34 34 35 35 36 36 35 35 35 35 34 33 32 32 32 33 34 34 34 35
9 10 11 11 11 10 11 12 12 12 13 12 12 12 13 14 14 13 13 14 15 15 14 13 11 6 6 8 10 13 13 14 15 16 15 14 14 17 20 22 24 25 24 24 26 29 31 31 31 31 30 30 31 32 34 34 35 35 35 35 35 34 34 35 35 35 35 35 36 37 39 39 40 40 39 38 38 37 36 36 37 36 36 37 37
9 9 10 10 10 10 10 11 11 12 11 10 11 11 12 14 14 13 13 14 15 16 16 15 14 10 7 7 8 10 11 12 14 14 14 13 13 15 17 20 23 24 24 23 25 29 31 31 30 29 29 31 32 32 33 34 35 36 38 39 38 38 37 38 38 38 37 36 36 36 38 39 41 42 42 41 40 40 40 40 39 38 38 40 39
9 10 9 9 8 9 10 10 11 12 11 10 10 10 11 14 15 14 14 14 15 17 16 14 14 12 10 8 7 8 8 9 11 12 13 13 13 14 15 17 20 22 23 22 23 26 28 28 28 27 27 29 31 32 33 35 36 37 38 39 40 41 41 41 40 39 38 37 37 36 37 37 38 39 40 40 40 41 42 42 41 39 41 41 39
9 10 9 8 8 8 10 10 10 11 10 10 10 9 11 14 14 13 13 14 16 18 16 14 13 12 11 11 9 8 8 8 8 10 12 13 14 15 16 17 18 19 21 23 23 25 27 27 27 27 27 27 27 29 32 34 35 36 37 38 39 40 41 41 39 38 37 37 36 36 36 36 36 36 36 36 36 37 38 40 41 41 42 41 39
9 9 9 9 8 9 9 9 10 10 10 10 10 9 13 16 14 12 13 15 18 20 18 15 13 12 14 14 12 11 11 11 11 11 10 9 10 13 16 19 20 20 20 21 22 25 27 28 28 28 28 29 29 29 31 33 35 36 37 37 37 38 37 36 36 36 36 36 35 35 35 34 34 34 33 32 32 32 32 34 36 37 37 36 36
9 10 10 10 9 9 10 10 10 10 10 10 10 11 13 14 13 12 14 16 19 20 19 18 15 14 15 17 16 14 13 13 14 14 12 10 11 11 13 16 19 20 19 18 20 23 26 27 28 30 31 31 31 31 32 33 33 33 33 33 33 33 33 33 33 34 33 33 32 31 31 30 30 30 31 31 30 30 30 31 32 32 30 29 29
10 11 11 11 11 11 11 11 10 10 10 11 12 13 13 12 12 12 15 17 18 17 16 17 18 18 19 18 17 17 17 17 17 14 13 14 15 13 12 12 13 14 15 16 18 21 24 26 27 29 31 31 31 31 33 34 33 32 31 29 26 26 27 29 31 32 31 29 27 26 26 26 26 26 27 28 28 28 29 31 31 29 27 26 26
10 11 12 12 12 13 12 12 11 11 11 11 11 12 12 12 13 15 16 16 16 13 12 14 19 23 23 20 19 18 16 14 15 15 12 12 11 11 11 12 12 10 9 10 13 18 22 24 26 27 27 27 27 27 27 27 29 31 31 28 26 26 28 29 31 32 31 29 27 26 26 26 25 26 27 27 28 30 31 32 31 29 28 27 27
11 13 14 15 14 13 13 13 13 12 12 11 11 11 12 13 15 15 14 13 13 13 14 17 21 23 23 22 23 21 16 12 14 16 14 11 9 8 10 12 12 8 7 8 10 13 17 21 23 23 22 21 22 23 22 21 23 25 25 24 23 25 27 30 33 34 33 33 32 31 31 30 29 29 30 31 32 33 33 33 33 33 33 32 32
13 14 15 15 15 15 15 15 16 15 14 13 13 12 12 13 14 14 13 15 18 19 20 20 20 21 22 23 24 24 21 18 15 13 11 11 11 12 13 13 12 8 6 8 10 12 14 15 18 20 20 19 20 20 19 18 20 22 22 22 22 22 21 23 27 31 33 34 35 34 33 33 32 32 32 34 36 37 37 38 38 38 38 38 38
13 14 15 15 15 16 16 17 17 17 16 15 14 14 14 14 15 16 17 18 18 19 21 21 20 20 23 23 22 22 22 18 12 8 8 10 12 13 14 14 14 12 10 9 9 11 12 13 14 16 17 18 17 16 16 17 19 21 21 21 23 23 21 20 21 24 27 31 32 33 33 32 32 33 33 35 37 38 39 41 42 42 42 42 41
13 14 14 15 15 16 16 17 18 18 17 17 16 16 15 15 16 17 18 19 19 18 19 20 20 19 19 18 17 17 15 12 10 10 11 11 12 13 14 16 16 15 16 15 14 15 16 16 17 17 18 18 18 17 18 19 19 19 20 21 22 21 20 19 20 21 23 26 28 29 30 30 31 32 33 34 35 36 38 39 41 42 42 42 42
13 14 14 14 15 16 16 17 18 18 18 18 17 16 15 15 16 17 18 18 18 18 18 17 16 15 15 14 14 13 12 13 15 15 15 16 18 19 20 21 22 21 21 20 20 22 23 24 24 22 20 20 20 21 22 23 22 22 22 21 20 20 20 20 19 20 22 24 26 27 28 28 29 31 33 33 33 33 33 34 35 37 38 39 38
15 15 15 15 15 15 16 16 17 17 17 18 18 18 17 17 17 17 17 18 19 20 20 18 15 14 14 15 16 16 17 18 19 19 19 22 24 24 24 23 23 23 23 22 22 23 23 25 27 25 23 22 21 21 22 23 24 26 27 25 23 22 23 22 21 23 25 27 27 27 28 28 29 31 33 33 32 29 28 29 30 32 32 32 31
Wind_Direction
175 176 173 171 171 168 169 168 167 165 166 167 162 166 165 161 171 169 167 178 175 168 165 163 156 151 159 160 152 155 157 151 149 159 165 158 154 150 149 152 150 150 148 143 145 145 139 138 141 135 137 143 130 127 136 140 138 134 135 128 120 117 105 103 113 112 120 122 124 118 97 111 115 124 135 127 128 98 86 125 154 155 136 117 124
176 177 174 172 172 169 170 171 171 168 168 168 165 168 167 166 172 168 172 181 175 172 168 164 162 158 162 163 159 164 162 151 154 171 169 159 158 153 152 154 151 152 148 144 141 138 136 136 139 138 141 145 137 136 138 137 138 133 129 123 121 118 110 124 123 106 107 116 123 125 103 112 136 143 153 155 152 133 93 124 156 137 123 148 142
176 178 176 174 174 170 171 173 174 171 170 170 169 170 168 172 175 168 176 181 173 175 170 167 167 159 161 164 163 167 159 155 166 174 168 163 160 156 155 153 153 152 146 145 140 136 139 138 138 138 141 144 140 135 136 140 137 127 124 125 123 109 106 122 107 96 119 135 128 127 117 127 162 148 166 169 153 162 139 121 140 141 138 178 102
178 179 178 176 175 172 172 175 175 173 173 173 173 172 170 179 180 170 178 180 173 176 173 171 167 159 165 169 171 168 160 170 176 166 165 170 164 158 158 155 154 151 146 146 140 139 142 138 136 137 139 139 134 128 126 133 133 130 136 134 129 118 107 106 93 103 128 133 129 129 124 127 127 116 155 162 144 154 150 127 145 156 154 152 109
182 181 180 178 177 175 174 175 177 175 176 176 176 176 173 183 185 175 177 178 176 178 175 174 170 163 169 173 173 164 162 179 176 165 172 172 165 161 158 158 155 150 150 148 143 145 144 136 137 138 136 132 128 124 122 125 126 133 138 132 134 134 127 119 104 109 138 145 141 130 131 148 128 103 157 169 149 134 142 145 156 155 146 125 145
185 183 182 181 178 176 175 176 179 178 179 179 178 179 176 184 188 179 178 178 179 181 176 180 176 167 169 172 172 166 167 176 170 171 172 161 167 168 158 160 157 151 152 150 151 152 144 139 142 142 138 135 129 124 127 128 119 128 137 135 147 144 136 127 108 89 128 141 133 111 104 115 103 83 139 189 213 117 135 144 150 161 167 133 154
191 189 185 183 180 178 178 178 181 180 180 180 179 180 180 187 188 182 182 179 181 183 178 183 181 171 171 172 170 169 170 170 165 168 161 158 175 176 164 164 157 152 154 155 158 155 147 144 144 142 140 136 130 127 127 127 128 148 159 165 171 155 145 136 123 113 119 124 125 110 85 95 105 81 102 128 358 127 143 150 161 189 193 120 129
192 193 189 184 182 181 180 181 184 182 180 180 181 181 184 192 190 184 186 181 182 186 182 185 185 176 174 174 173 171 171 173 167 165 165 171 179 174 173 167 155 159 163 159 156 152 153 151 145 147 146 134 126 128 126 136 157 167 167 171 174 167 160 147 137 134 128 132 150 139 124 132 123 110 136 125 81 122 115 140 161 174 174 144 110
192 193 191 186 184 184 183 184 185 183 181 181 182 182 186 195 192 187 188 184 184 190 186 188 188 181 178 178 178 173 173 177 168 164 171 176 172 167 175 171 161 169 171 161 157 155 156 155 149 148 147 139 134 136 135 152 176 167 149 154 158 167 170 160 153 147 134 140 156 150 150 156 137 135 139 123 208 267 32 73 113 123 158 153 114
192 193 193 188 186 186 184 186 187 185 183 182 182 182 184 193 195 192 190 187 188 191 191 191 190 186 183 181 181 175 175 178 170 170 175 174 171 169 177 178 169 173 170 161 161 161 157 155 154 150 149 152 151 153 153 148 164 164 159 157 159 169 171 166 164 155 136 130 146 175 165 157 152 157 142 114 233 243 349 47 121 135 174 167 119
196 197 197 192 188 186 185 187 189 187 183 182 184 183 182 190 197 195 192 191 192 192 193 194 193 192 188 185 185 178 178 180 176 179 179 177 177 175 180 182 174 174 170 163 164 167 163 158 162 160 156 161 158 156 156 148 147 154 155 157 166 177 171 168 169 161 151 137 133 177 160 146 143 160 188 165 170 233 315 309 208 163 171 178 199
198 198 199 196 191 189 189 189 190 189 186 183 185 185 184 191 197 196 193 194 195 194 195 195 195 196 193 190 190 184 180 182 184 187 186 182 180 177 178 179 176 172 170 175 172 169 169 164 170 173 165 168 168 160 158 158 156 151 153 160 163 167 166 172 172 163 162 154 142 148 147 159 173 158 192 177 177 232 237 243 309 34 150 184 232
201 203 203 199 194 193 192 192 193 193 190 186 187 187 186 191 197 197 194 195 198 196 194 196 198 200 199 194 194 192 187 187 190 193 193 188 183 182 181 178 178 173 176 187 175 171 176 170 174 178 171 175 175 166 164 169 170 156 153 162 157 156 161 170 170 162 165 170 163 159 163 201 208 172 178 197 216 257 214 219 304 13 176 218 230
200 203 204 200 196 195 194 195 195 196 195 190 190 190 188 191 198 199 197 196 199 199 196 198 200 201 202 199 198 197 194 197 198 195 196 194 189 190 186 180 180 176 182 186 170 176 186 174 174 180 178 178 172 169 173 173 172 165 160 164 163 157 155 163 168 162 170 183 174 170 178 194 192 182 194 196 218 290 220 233 266 229 224 244 211
196 200 203 200 197 196 196 196 197 199 199 193 192 194 191 193 199 200 199 197 200 201 198 199 201 202 204 203 202 201 197 200 204 199 198 198 196 196 189 187 189 182 183 181 172 185 195 180 175 178 179 181 171 169 177 173 168 171 175 172 168 161 151 166 175 163 169 189 186 184 187 184 167 173 201 195 209 247 211 234 255 232 224 241 212
188 194 198 199 199 199 199 199 200 202 202 197 194 196 194 195 201 202 201 201 201 202 201 201 202 203 204 205 205 204 201 201 203 203 202 200 202 200 190 191 198 190 186 185 180 188 194 186 182 181 179 183 182 175 175 178 175 171 173 173 170 163 157 170 176 170 178 185 190 197 194 188 176 181 199 193 196 210 206 222 238 230 235 248 187
194 192 188 192 200 205 205 204 204 204 206 204 201 199 194 195 201 204 204 203 203 204 204 204 204 204 205 206 207 208 206 204 203 205 203 201 204 204 196 195 198 192 193 194 189 190 194 190 184 184 185 185 186 185 177 180 184 178 168 169 173 167 164 174 175 176 180 181 193 197 188 193 200 200 197 199 217 220 220 227 217 210 229 230 201
202 203 197 192 197 206 207 204 205 206 207 208 210 208 201 197 201 204 205 206 206 206 205 205 205 206 207 207 207 210 211 207 205 206 203 200 203 204 202 205 200 191 193 199 197 195 195 193 186 184 190 191 188 189 188 185 186 186 173 169 176 179 181 184 179 183 185 184 196 193 182 192 210 210 197 212 249 239 229 230 218 221 230 221 223
139 193 200 199 201 205 205 203 203 204 205 207 212 211 203 198 201 205 206 207 207 206 205 206 207 207 208 210 208 210 212 209 205 206 203 199 203 204 201 208 208 196 192 197 202 203 198 194 192 190 192 197 193 191 196 195 189 189 182 177 182 188 194 189 179 187 188 185 193 195 191 196 206 213 205 213 238 244 234 216 203 226 237 223 223
67 142 199 206 210 209 208 210 207 205 209 212 213 213 208 204 204 206 207 208 208 205 204 206 208 207 209 213 212 211 213 211 206 207 205 200 203 205 201 203 207 203 199 198 199 205 205 198 196 197 197 200 200 196 199 200 196 196 191 188 193 195 201 198 185 192 197 191 197 202 203 209 213 214 210 216 231 241 247 233 214 223 233 230 228
58 33 10 221 220 211 203 205 206 209 217 218 215 214 213 212 211 208 207 209 210 206 202 204 208 206 208 214 215 213 214 212 207 207 208 203 202 204 202 201 203 204 205 204 200 202 209 208 201 200 200 201 205 202 202 205 201 200 198 199 207 207 207 209 196 195 202 198 199 202 206 216 219 213 207 213 228 240 253 258 250 241 239 240 240
75 54 47 42 221 212 203 197 199 206 214 217 217 214 210 209 211 211 214 217 216 210 203 204 206 204 207 216 219 216 215 212 209 209 209 207 205 203 202 202 203 204 205 207 207 202 205 210 205 204 203 201 207 209 204 206 207 203 200 203 213 214 207 209 204 200 203 203 205 208 210 216 220 220 217 211 214 236 253 260 270 275 268 260 255
79 72 61 53 80 203 207 205 200 201 206 210 215 217 212 210 211 212 216 221 222 217 209 208 209 205 204 211 218 220 218 214 211 211 211 210 210 207 203 202 202 204 204 206 211 208 204 206 204 207 209 203 208 216 209 206 209 210 207 202 209 223 223 217 212 210 210 208 210 213 214 219 222 227 235 227 214 222 236 240 248 265 270 264 261
80 73 64 60 72 115 176 201 204 206 211 211 212 213 212 213 213 211 213 217 220 219 214 214 216 212 208 210 215 219 220 216 212 213 213 211 212 210 206 204 201 203 206 205 208 211 212 211 204 206 215 208 206 218 217 210 209 214 216 205 200 213 228 229 223 221 220 220 222 222 220 221 220 222 233 236 227 221 227 233 237 247 256 258 255
78 70 63 67 79 84 89 123 171 194 212 217 216 211 206 208 209 206 211 217 219 219 216 215 219 219 218 218 220 221 222 219 214 213 214 213 211 211 210 209 204 203 208 209 206 208 215 222 214 207 215 215 210 216 221 217 212 214 221 217 206 207 214 220 224 224 223 223 227 231 229 224 220 220 226 232 232 226 225 231 237 243 252 264 273
70 67 65 70 80 79 76 85 97 105 124 189 218 216 212 213 213 213 219 221 220 221 221 221 224 225 223 221 223 223 223 222 217 214 215 214 212 212 210 212 209 204 207 211 211 209 211 221 223 216 217 221 219 220 223 223 219 218 225 227 221 217 218 220 223 226 227 225 227 231 232 230 229 227 227 230 233 232 232 235 239 243 244 248 260
68 66 66 69 73 71 69 76 77 78 90 104 157 208 218 220 218 222 231 231 228 227 227 227 228 228 225 222 222 222 222 225 222 217 216 215 213 213 211 212 212 208 207 210 213 214 213 216 223 223 221 224 226 226 227 229 224 218 222 230 230 228 228 231 231 233 235 235 235 238 236 232 234 235 233 230 229 233 239 242 242 244 247 246 246
72 69 66 65 69 66 62 65 59 57 82 108 111 130 173 197 202 215 232 237 236 234 234 234 235 234 231 225 220 220 226 235 231 222 220 218 214 215 214 215 216 212 210 211 212 216 216 216 220 223 222 223 228 230 229 232 231 222 217 224 230 230 230 235 237 237 237 235 237 242 244 240 240 243 242 238 236 237 240 245 248 250 252 255 257
72 70 67 64 65 65 64 65 60 56 66 146 136 118 123 154 180 188 199 218 228 232 232 235 238 238 234 228 221 221 238 255 252 234 224 221 218 217 215 216 219 217 215 214 214 217 219 218 219 223 224 222 225 231 232 233 235 232 224 221 224 227 227 229 234 236 236 234 233 235 238 240 245 253 256 257 256 250 242 240 244 248 250 252 257
69 69 69 65 64 63 63 65 64 65 69 91 163 170 153 134 162 170 164 160 175 215 227 229 234 232 229 230 226 226 242 261 266 257 239 224 220 221 218 217 219 220 219 218 217 217 221 222 222 224 227 226 224 228 235 238 238 238 236 230 227 228 228 228 229 230 231 232 233 234 235 235 239 250 257 261 262 260 255 249 245 246 250 253 256
67 66 65 63 62 59 59 61 62 64 65 69 111 179 198 199 174 179 171 154 139 168 213 225 236 238 234 235 233 231 239 252 260 265 262 245 232 227 222 222 222 221 220 222 222 221 221 223 224 224 226 229 227 226 231 239 241 240 240 238 234 231 231 232 232 229 227 228 230 232 234 234 234 238 245 250 252 255 259 259 256 253 255 258 263
65 63 61 59 57 54 54 55 57 61 62 61 64 89 202 43 31 213 207 202 180 181 200 213 230 239 241 244 243 239 239 245 255 256 252 258 263 245 228 225 225 224 224 223 224 224 222 223 226 226 225 228 230 228 229 235 242 244 243 242 240 236 232 233 235 233 230 230 231 230 231 233 235 237 241 246 248 252 258 263 264 261 259 260 263
64 61 58 57 55 53 52 49 49 53 55 56 57 49 15 2 16 8 279 248 248 234 226 227 233 241 245 246 246 242 239 242 253 250 240 245 252 244 236 233 225 223 226 227 228 229 226 224 224 227 230 232 233 232 229 232 238 244 245 244 242 240 236 233 235 237 236 235 236 236 234 232 233 235 241 249 254 257 261 266 268 266 263 262 262
65 61 56 55 53 53 53 49 46 49 48 46 54 54 33 11 19 23 4 322 298 284 264 252 247 245 247 248 246 244 241 242 247 249 245 245 239 231 231 231 226 222 221 222 225 230 233 232 228 226 229 231 235 237 235 234 237 241 244 244 243 242 239 236 235 237 239 240 241 242 242 241 239 236 236 241 249 256 259 261 263 265 266 266 265
65 61 55 52 50 49 50 50 46 47 46 37 41 50 41 26 33 32 17 6 354 322 297 283 268 250 246 249 251 249 245 245 249 252 249 249 245 234 229 228 230 232 229 224 222 223 229 236 236 234 231 230 232 237 240 242 242 243 244 245 245 244 242 239 236 234 236 239 242 244 246 249 249 247 244 241 241 246 251 255 259 264 268 271 271
62 61 54 48 47 45 45 48 47 45 46 37 31 38 39 33 37 34 20 19 25 14 346 317 293 267 253 251 252 253 251 248 253 258 253 248 244 239 234 232 233 236 237 235 232 227 227 232 236 238 238 237 235 235 237 242 246 247 246 247 247 247 246 245 242 237 235 236 238 241 244 247 250 253 253 252 249 248 249 252 256 261 266 271 274
59 60 51 41 42 42 39 41 43 42 44 38 26 28 35 34 34 31 20 19 27 31 28 16 346 292 272 267 259 254 250 247 251 257 256 250 244 239 235 235 238 240 240 240 241 240 237 236 236 237 240 242 242 240 238 238 241 245 247 248 248 248 248 249 248 245 241 239 238 239 242 245 248 251 254 256 257 256 255 256 258 260 263 266 269
54 54 44 33 33 35 32 33 36 36 39 38 27 21 26 31 31 29 21 12 14 23 27 25 23 358 311 302 283 263 250 243 246 254 257 255 248 241 234 229 233 240 242 241 242 243 243 241 240 241 242 244 245 245 243 241 239 241 243 245 246 247 247 249 250 250 250 248 246 244 244 246 248 251 253 255 256 258 258 260 262 262 262 263 265
44 42 34 27 26 27 25 24 26 27 28 32 27 13 10 20 23 22 20 10 3 10 16 18 23 19 354 333 309 285 265 248 246 249 253 255 251 247 243 236 232 235 239 240 240 239 241 243 245 246 247 247 246 246 245 245 242 240 241 243 245 246 247 248 250 252 254 255 254 252 250 249 251 253 255 255 255 256 258 260 262 262 262 264 266
30 27 24 23 23 21 18 13 15 20 18 17 21 11 0 8 12 8 8 4 357 0 4 5 11 14 4 350 330 305 283 264 258 255 252 255 257 253 250 247 242 239 237 238 239 239 241 244 248 249 250 250 248 245 245 247 246 243 242 242 243 244 246 248 250 252 254 257 258 258 256 254 255 256 257 258 258 258 259 260 261 260 261 265 268
16 18 21 22 17 12 9 7 8 11 6 4 10 360 342 351 0 358 354 351 348 351 355 353 355 357 353 349 341 319 294 277 273 266 256 255 259 260 258 256 254 252 247 243 242 242 243 244 244 246 248 249 249 246 245 246 247 246 246 244 244 244 246 249 251 252 253 254 256 259 261 261 261 261 261 261 262 262 262 262 261 261 264 267 268
8 13 15 13 12 7 2 0 357 355 354 357 359 344 333 341 350 347 341 337 338 343 345 345 347 350 348 345 341 328 305 286 280 272 261 260 264 263 263 261 258 259 260 258 254 251 250 247 243 241 242 244 245 247 250 250 247 247 248 247 247 247 248 250 251 251 252 253 255 258 261 263 266 268 269 269 269 269 268 266 266 266 268 269 268
358 2 1 1 2 357 352 349 346 343 344 343 337 328 331 339 341 336 330 329 335 340 339 336 338 344 345 342 340 340 332 317 303 283 268 283 298 280 263 261 260 259 260 264 264 261 259 256 249 242 241 241 243 248 254 255 252 250 250 248 247 250 253 253 253 252 252 254 257 260 263 265 266 268 271 273 274 273 271 271 271 272 272 271 269
351 352 352 351 349 344 343 341 340 340 338 331 324 323 329 336 333 325 322 326 334 340 337 329 325 327 335 341 341 342 343 342 335 312 282 288 305 295 268 256 259 259 258 263 268 266 264 264 262 256 251 249 249 253 259 265 268 268 265 257 250 248 251 253 254 254 254 255 257 260 263 264 264 265 267 269 270 270 270 271 273 273 272 271 268
345 346 340 336 336 338 338 335 332 334 332 329 328 326 323 319 313 313 322 329 334 334 323 312 312 318 326 331 331 336 342 340 337 330 309 295 303 308 290 267 258 260 267 275 278 272 267 266 268 269 266 263 262 262 265 276 287 288 280 271 260 250 246 247 248 250 250 250 252 252 253 253 254 256 258 261 263 265 267 268 269 269 269 268 266
340 340 334 329 329 332 331 327 325 327 326 325 324 322 318 314 311 314 322 322 311 301 297 300 308 314 318 318 319 326 331 323 316 321 322 311 299 309 309 289 273 273 292 307 303 288 278 272 270 272 278 283 284 279 276 286 298 294 282 272 262 251 244 243 245 247 249 250 252 253 253 253 253 252 252 254 256 259 261 263 264 264 264 264 264
336 337 334 332 331 328 326 324 321 322 324 321 319 318 318 316 313 311 308 302 297 298 300 304 308 309 308 311 315 317 319 321 320 319 319 312 299 295 295 291 288 292 312 322 314 302 296 290 281 278 283 290 293 288 280 279 283 279 273 270 264 255 248 246 246 246 249 252 255 257 258 258 258 257 255 255 255 255 257 258 260 261 261 263 265
331 332 331 331 329 325 324 323 321 322 323 321 319 316 315 314 312 310 308 306 306 305 304 305 307 307 307 311 314 316 320 325 324 309 300 299 297 294 288 285 286 286 286 290 292 290 294 297 291 287 286 287 290 290 281 274 273 272 272 271 266 259 255 253 250 247 247 250 253 256 257 259 260 261 262 261 260 259 259 260 261 262 263 264 265
325 326 327 327 325 322 321 319 319 319 320 319 318 317 317 316 314 313 312 312 312 309 307 307 308 308 310 312 312 314 317 312 295 293 298 295 287 281 278 277 278 276 273 272 270 270 275 279 279 275 274 275 277 277 274 271 272 271 269 268 266 262 258 255 252 248 247 249 252 255 257 259 261 263 265 265 265 265 265 264 265 265 265 265 264
320 321 323 323 320 319 318 317 318 319 319 319 318 316 315 315 313 313 313 313 311 309 308 309 309 306 304 304 302 299 291 284 284 289 290 286 281 281 282 284 285 282 280 278 272 268 270 274 274 270 268 269 270 270 270 268 266 266 267 268 267 265 262 260 257 256 257 257 258 259 261 263 265 267 268 268 269 271 271 270 269 269 269 268 266
318 319 320 319 319 319 318 317 318 318 317 316 315 314 313 312 311 310 309 307 304 301 299 300 301 300 296 295 295 293 287 284 286 288 288 288 289 290 292 294 293 291 290 287 282 277 275 275 274 272 270 270 270 270 270 269 266 264 266 266 264 262 262 263 264 266 268 267 266 267 267 268 269 270 269 268 268 268 267 266 267 268 269 269 269